Time,TemperatureF,DewpointF,PressureIn,WindDirection,WindDirectionDegrees,WindSpeedMPH,WindSpeedGustMPH,Humidity,HourlyPrecipIn,Conditions,Clouds,dailyrainin,SoftwareType,DateUTC
2013-03-28 00:02:00,27.3,19.2,30.28,West,273,0.0,1.0,71,0.00,,,0.00,meteohub,2013-03-28 07:02:00,
2013-03-28 00:12:00,27.0,19.2,30.28,West,273,0.0,1.0,72,0.00,,,0.00,meteohub,2013-03-28 07:12:00,
2013-03-28 00:22:00,26.4,18.9,30.28,West,273,0.0,0.0,73,0.00,,,0.00,meteohub,2013-03-28 07:22:00,
2013-03-28 00:27:00,26.2,18.9,30.28,West,273,0.0,1.0,73,0.00,,,0.00,meteohub,2013-03-28 07:27:00,
2013-03-28 00:32:00,26.2,18.9,30.28,West,273,0.0,1.0,73,0.00,,,0.00,meteohub,2013-03-28 07:32:00,
2013-03-28 00:42:00,25.9,19.0,30.28,West,273,0.0,2.0,75,0.00,,,0.00,meteohub,2013-03-28 07:42:00,
2013-03-28 00:47:00,25.5,19.0,30.28,West,273,0.0,2.0,76,0.00,,,0.00,meteohub,2013-03-28 07:47:00,
2013-03-28 00:57:00,25.2,18.3,30.28,West,273,0.0,0.0,75,0.00,,,0.00,meteohub,2013-03-28 07:57:00,
2013-03-28 01:02:00,25.0,18.5,30.28,West,273,0.0,0.0,76,0.00,,,0.00,meteohub,2013-03-28 08:02:00,
2013-03-28 01:07:00,24.6,18.5,30.29,West,273,0.0,1.0,77,0.00,,,0.00,meteohub,2013-03-28 08:07:00,
2013-03-28 01:17:00,24.4,18.5,30.29,West,273,0.0,0.0,78,0.00,,,0.00,meteohub,2013-03-28 08:17:00,
2013-03-28 01:27:00,24.3,17.4,30.29,West,273,0.0,0.0,75,0.00,,,0.00,meteohub,2013-03-28 08:27:00,
2013-03-28 01:32:00,24.3,17.8,30.29,West,273,0.0,0.0,76,0.00,,,0.00,meteohub,2013-03-28 08:32:00,
2013-03-28 01:37:00,24.1,17.6,30.29,West,273,0.0,1.0,76,0.00,,,0.00,meteohub,2013-03-28 08:37:00,
2013-03-28 01:42:00,23.7,17.6,30.29,West,273,0.0,1.0,77,0.00,,,0.00,meteohub,2013-03-28 08:42:00,
2013-03-28 01:47:00,23.5,17.4,30.29,West,273,0.0,1.0,77,0.00,,,0.00,meteohub,2013-03-28 08:47:00,
2013-03-28 01:52:00,23.5,17.8,30.29,West,273,0.0,1.0,78,0.00,,,0.00,meteohub,2013-03-28 08:52:00,
2013-03-28 01:57:00,23.4,17.6,30.30,West,273,0.0,1.0,78,0.00,,,0.00,meteohub,2013-03-28 08:57:00,
2013-03-28 02:02:00,23.4,17.8,30.30,West,273,0.0,0.0,79,0.00,,,0.00,meteohub,2013-03-28 09:02:00,
2013-03-28 02:07:00,23.0,17.8,30.30,West,273,0.0,0.0,80,0.00,,,0.00,meteohub,2013-03-28 09:07:00,
2013-03-28 02:12:00,22.8,17.6,30.30,West,273,0.0,0.0,80,0.00,,,0.00,meteohub,2013-03-28 09:12:00,
2013-03-28 02:17:00,22.6,17.4,30.30,West,273,0.0,0.0,80,0.00,,,0.00,meteohub,2013-03-28 09:17:00,
2013-03-28 02:27:00,22.6,17.4,30.30,West,273,0.0,0.0,80,0.00,,,0.00,meteohub,2013-03-28 09:27:00,
2013-03-28 02:32:00,22.6,17.8,30.30,West,273,0.0,0.0,81,0.00,,,0.00,meteohub,2013-03-28 09:32:00,
2013-03-28 02:37:00,22.5,17.2,30.30,West,273,0.0,1.0,80,0.00,,,0.00,meteohub,2013-03-28 09:37:00,
2013-03-28 02:42:00,22.3,17.4,30.30,West,273,0.0,2.0,81,0.00,,,0.00,meteohub,2013-03-28 09:42:00,
2013-03-28 02:47:00,22.3,17.6,30.30,West,273,0.0,2.0,82,0.00,,,0.00,meteohub,2013-03-28 09:47:00,
2013-03-28 02:52:00,22.3,18.0,30.30,West,273,0.0,2.0,83,0.00,,,0.00,meteohub,2013-03-28 09:52:00,
2013-03-28 02:57:00,22.5,17.8,30.30,West,273,0.0,2.0,82,0.00,,,0.00,meteohub,2013-03-28 09:57:00,
2013-03-28 03:07:00,22.3,17.1,30.31,West,273,0.0,1.0,80,0.00,,,0.00,meteohub,2013-03-28 10:07:00,
2013-03-28 03:12:00,21.9,17.1,30.30,West,273,0.0,1.0,81,0.00,,,0.00,meteohub,2013-03-28 10:12:00,
2013-03-28 03:17:00,21.7,17.1,30.31,West,273,0.0,2.0,82,0.00,,,0.00,meteohub,2013-03-28 10:17:00,
2013-03-28 03:22:00,21.6,16.9,30.31,West,273,0.0,2.0,82,0.00,,,0.00,meteohub,2013-03-28 10:22:00,
2013-03-28 03:32:00,21.6,16.9,30.31,West,273,0.0,1.0,82,0.00,,,0.00,meteohub,2013-03-28 10:32:00,
2013-03-28 03:37:00,21.4,16.7,30.31,West,273,0.0,1.0,82,0.00,,,0.00,meteohub,2013-03-28 10:37:00,
2013-03-28 03:42:00,21.2,16.9,30.31,West,273,0.0,1.0,83,0.00,,,0.00,meteohub,2013-03-28 10:42:00,
2013-03-28 03:47:00,21.0,16.7,30.31,West,273,0.0,1.0,83,0.00,,,0.00,meteohub,2013-03-28 10:47:00,
2013-03-28 03:52:00,21.0,16.9,30.32,West,273,0.0,0.0,84,0.00,,,0.00,meteohub,2013-03-28 10:52:00,
2013-03-28 03:57:00,20.8,17.1,30.32,West,273,0.0,0.0,85,0.00,,,0.00,meteohub,2013-03-28 10:57:00,
2013-03-28 04:02:00,20.8,16.7,30.32,West,273,0.0,0.0,84,0.00,,,0.00,meteohub,2013-03-28 11:02:00,
2013-03-28 04:12:00,20.8,16.2,30.32,West,273,0.0,2.0,82,0.00,,,0.00,meteohub,2013-03-28 11:12:00,
2013-03-28 04:17:00,20.5,16.2,30.32,West,273,0.0,2.0,83,0.00,,,0.00,meteohub,2013-03-28 11:17:00,
2013-03-28 04:22:00,20.3,16.5,30.32,West,273,0.0,2.0,85,0.00,,,0.00,meteohub,2013-03-28 11:22:00,
2013-03-28 04:27:00,20.5,16.7,30.32,West,273,0.0,1.0,85,0.00,,,0.00,meteohub,2013-03-28 11:27:00,
2013-03-28 04:37:00,19.8,15.1,30.33,SSW,194,0.0,3.0,82,0.00,,,0.00,meteohub,2013-03-28 11:37:00,
2013-03-28 04:42:00,19.4,15.6,30.33,SSW,194,0.0,3.0,85,0.00,,,0.00,meteohub,2013-03-28 11:42:00,
2013-03-28 04:52:00,19.8,16.0,30.34,SSW,194,0.0,3.0,85,0.00,,,0.00,meteohub,2013-03-28 11:52:00,
2013-03-28 04:57:00,19.8,16.0,30.34,SSW,194,0.0,3.0,85,0.00,,,0.00,meteohub,2013-03-28 11:57:00,
2013-03-28 05:07:00,19.6,15.8,30.35,SSW,194,0.0,2.0,85,0.00,,,0.00,meteohub,2013-03-28 12:07:00,
2013-03-28 05:12:00,19.8,16.0,30.35,SSW,194,1.0,2.0,85,0.00,,,0.00,meteohub,2013-03-28 12:12:00,
2013-03-28 05:17:00,20.3,16.2,30.35,SSW,194,0.0,2.0,84,0.00,,,0.00,meteohub,2013-03-28 12:17:00,
2013-03-28 05:22:00,20.7,16.3,30.35,SSW,194,1.0,2.0,83,0.00,,,0.00,meteohub,2013-03-28 12:22:00,
2013-03-28 05:32:00,19.9,15.6,30.36,SSW,194,0.0,4.0,83,0.00,,,0.00,meteohub,2013-03-28 12:32:00,
2013-03-28 05:37:00,19.9,16.0,30.36,SSW,194,0.0,4.0,84,0.00,,,0.00,meteohub,2013-03-28 12:37:00,
2013-03-28 05:42:00,19.9,16.0,30.36,SSW,194,0.0,2.0,84,0.00,,,0.00,meteohub,2013-03-28 12:42:00,
2013-03-28 05:47:00,20.1,15.8,30.36,SSE,160,0.0,2.0,83,0.00,,,0.00,meteohub,2013-03-28 12:47:00,
2013-03-28 05:52:00,20.3,15.6,30.36,SSE,160,1.0,5.0,82,0.00,,,0.00,meteohub,2013-03-28 12:52:00,
2013-03-28 05:57:00,20.5,15.8,30.37,SSE,160,0.0,5.0,82,0.00,,,0.00,meteohub,2013-03-28 12:57:00,
2013-03-28 06:02:00,20.5,15.6,30.37,SSE,160,0.0,5.0,81,0.00,,,0.00,meteohub,2013-03-28 13:02:00,
2013-03-28 06:07:00,20.1,14.9,30.37,SSE,160,0.0,2.0,80,0.00,,,0.00,meteohub,2013-03-28 13:07:00,
2013-03-28 06:17:00,19.4,14.7,30.38,SSE,160,0.0,2.0,82,0.00,,,0.00,meteohub,2013-03-28 13:17:00,
2013-03-28 06:22:00,19.4,15.1,30.38,SSE,160,0.0,1.0,83,0.00,,,0.00,meteohub,2013-03-28 13:22:00,
2013-03-28 06:32:00,19.4,15.1,30.38,SSE,161,0.0,2.0,83,0.00,,,0.00,meteohub,2013-03-28 13:32:00,
2013-03-28 06:42:00,18.9,15.1,30.38,SSE,161,0.0,2.0,85,0.00,,,0.00,meteohub,2013-03-28 13:42:00,
2013-03-28 06:47:00,19.0,15.3,30.38,SSE,161,0.0,1.0,85,0.00,,,0.00,meteohub,2013-03-28 13:47:00,
2013-03-28 06:57:00,19.8,16.0,30.39,SSE,161,0.0,1.0,85,0.00,,,0.00,meteohub,2013-03-28 13:57:00,
2013-03-28 07:02:00,20.5,16.3,30.39,SSE,161,0.0,1.0,84,0.00,,,0.00,meteohub,2013-03-28 14:02:00,
2013-03-28 07:07:00,21.2,17.4,30.39,SSE,161,0.0,0.0,85,0.00,,,0.00,meteohub,2013-03-28 14:07:00,
2013-03-28 07:17:00,21.7,17.6,30.39,SSE,161,0.0,3.0,84,0.00,,,0.00,meteohub,2013-03-28 14:17:00,
2013-03-28 07:22:00,22.3,18.1,30.39,SSE,161,0.0,3.0,84,0.00,,,0.00,meteohub,2013-03-28 14:22:00,
2013-03-28 07:37:00,24.4,19.2,30.39,SSE,161,0.0,1.0,80,0.00,,,0.00,meteohub,2013-03-28 14:37:00,
2013-03-28 07:42:00,25.3,19.8,30.39,SSE,161,0.0,1.0,79,0.00,,,0.00,meteohub,2013-03-28 14:42:00,
2013-03-28 07:47:00,25.7,20.1,30.39,SSE,161,0.0,2.0,79,0.00,,,0.00,meteohub,2013-03-28 14:47:00,
2013-03-28 08:02:00,26.4,19.6,30.39,SSE,161,1.0,2.0,75,0.00,,,0.00,meteohub,2013-03-28 15:02:00,
2013-03-28 08:07:00,27.0,19.8,30.39,SSE,161,0.0,2.0,74,0.00,,,0.00,meteohub,2013-03-28 15:07:00,
2013-03-28 08:12:00,27.3,19.6,30.39,SSE,161,2.0,2.0,72,0.00,,,0.00,meteohub,2013-03-28 15:12:00,
2013-03-28 08:22:00,28.6,19.8,30.39,SW,236,1.0,3.0,69,0.00,,,0.00,meteohub,2013-03-28 15:22:00,
2013-03-28 08:32:00,29.5,19.6,30.39,SW,236,0.0,3.0,66,0.00,,,0.00,meteohub,2013-03-28 15:32:00,
2013-03-28 08:37:00,30.0,19.8,30.39,SW,236,0.0,3.0,65,0.00,,,0.00,meteohub,2013-03-28 15:37:00,
2013-03-28 08:42:00,30.6,20.1,30.39,SW,236,2.0,3.0,65,0.00,,,0.00,meteohub,2013-03-28 15:42:00,
2013-03-28 08:52:00,31.8,20.3,30.39,WSW,245,2.0,3.0,62,0.00,,,0.00,meteohub,2013-03-28 15:52:00,
2013-03-28 08:57:00,32.5,19.0,30.38,WSW,251,2.0,4.0,57,0.00,,,0.00,meteohub,2013-03-28 15:57:00,
2013-03-28 09:02:00,32.9,19.4,30.38,WSW,252,3.0,4.0,57,0.00,,,0.00,meteohub,2013-03-28 16:02:00,
2013-03-28 09:07:00,33.4,19.0,30.38,WSW,253,1.0,4.0,55,0.00,,,0.00,meteohub,2013-03-28 16:07:00,
2013-03-28 09:12:00,34.2,19.8,30.38,WSW,253,2.0,3.0,55,0.00,,,0.00,meteohub,2013-03-28 16:12:00,
2013-03-28 09:22:00,35.4,19.9,30.39,WSW,253,2.0,3.0,53,0.00,,,0.00,meteohub,2013-03-28 16:22:00,
2013-03-28 09:32:00,36.7,19.8,30.38,NW,310,2.0,4.0,50,0.00,,,0.00,meteohub,2013-03-28 16:32:00,
2013-03-28 09:37:00,37.2,20.3,30.38,West,281,2.0,4.0,50,0.00,,,0.00,meteohub,2013-03-28 16:37:00,
2013-03-28 09:42:00,37.8,19.4,30.38,NW,309,4.0,4.0,47,0.00,,,0.00,meteohub,2013-03-28 16:42:00,
2013-03-28 09:47:00,38.3,16.7,30.38,NW,305,3.0,4.0,41,0.00,,,0.00,meteohub,2013-03-28 16:47:00,
2013-03-28 09:52:00,38.7,17.1,30.38,NW,305,2.0,4.0,41,0.00,,,0.00,meteohub,2013-03-28 16:52:00,
2013-03-28 09:57:00,39.2,20.1,30.38,NW,305,1.0,4.0,46,0.00,,,0.00,meteohub,2013-03-28 16:57:00,
2013-03-28 10:02:00,39.9,19.8,30.38,NW,305,0.0,4.0,44,0.00,,,0.00,meteohub,2013-03-28 17:02:00,
2013-03-28 10:12:00,40.8,19.6,30.38,NW,304,1.0,4.0,42,0.00,,,0.00,meteohub,2013-03-28 17:12:00,
2013-03-28 10:22:00,42.3,23.0,30.38,NW,304,2.0,4.0,46,0.00,,,0.00,meteohub,2013-03-28 17:22:00,
2013-03-28 10:32:00,43.3,21.7,30.37,NW,304,3.0,5.0,42,0.00,,,0.00,meteohub,2013-03-28 17:32:00,
2013-03-28 10:47:00,44.8,25.7,30.36,WSW,258,7.0,7.0,47,0.00,,,0.00,meteohub,2013-03-28 17:47:00,
2013-03-28 10:52:00,45.1,25.5,30.35,West,263,6.0,8.0,46,0.00,,,0.00,meteohub,2013-03-28 17:52:00,
2013-03-28 11:07:00,46.9,21.4,30.35,NW,315,8.0,9.0,36,0.00,,,0.00,meteohub,2013-03-28 18:07:00,
2013-03-28 11:22:00,48.7,19.4,30.34,NW,312,6.0,10.0,31,0.00,,,0.00,meteohub,2013-03-28 18:22:00,
2013-03-28 11:27:00,49.3,22.1,30.34,NE,47,1.0,8.0,34,0.00,,,0.00,meteohub,2013-03-28 18:27:00,
2013-03-28 11:32:00,49.3,19.9,30.34,NW,316,5.0,10.0,31,0.00,,,0.00,meteohub,2013-03-28 18:32:00,
2013-03-28 11:42:00,48.9,21.0,30.34,NW,316,6.0,13.0,33,0.00,,,0.00,meteohub,2013-03-28 18:42:00,
2013-03-28 11:47:00,49.1,19.8,30.34,NW,320,6.0,13.0,31,0.00,,,0.00,meteohub,2013-03-28 18:47:00,
2013-03-28 11:57:00,49.3,18.3,30.33,North,0,4.0,10.0,29,0.00,,,0.00,meteohub,2013-03-28 18:57:00,
2013-03-28 12:02:00,49.6,20.3,30.33,NW,316,2.0,10.0,31,0.00,,,0.00,meteohub,2013-03-28 19:02:00,
2013-03-28 12:07:00,50.0,19.8,30.33,WNW,302,3.0,8.0,30,0.00,,,0.00,meteohub,2013-03-28 19:07:00,
2013-03-28 12:17:00,50.2,19.9,30.33,NW,311,5.0,7.0,30,0.00,,,0.00,meteohub,2013-03-28 19:17:00,
2013-03-28 12:22:00,50.2,20.7,30.33,WNW,285,3.0,8.0,31,0.00,,,0.00,meteohub,2013-03-28 19:22:00,
2013-03-28 12:32:00,49.5,20.1,30.32,WNW,302,6.0,10.0,31,0.00,,,0.00,meteohub,2013-03-28 19:32:00,
2013-03-28 12:37:00,49.1,20.5,30.32,NE,42,4.0,9.0,32,0.00,,,0.00,meteohub,2013-03-28 19:37:00,
2013-03-28 12:42:00,49.6,21.0,30.32,NW,310,4.0,9.0,32,0.00,,,0.00,meteohub,2013-03-28 19:42:00,
2013-03-28 12:47:00,50.2,23.5,30.32,NW,304,6.0,9.0,35,0.00,,,0.00,meteohub,2013-03-28 19:47:00,
2013-03-28 12:52:00,50.2,21.4,30.31,NW,309,8.0,9.0,32,0.00,,,0.00,meteohub,2013-03-28 19:52:00,
2013-03-28 12:57:00,49.8,20.3,30.32,South,188,1.0,13.0,31,0.00,,,0.00,meteohub,2013-03-28 19:57:00,
2013-03-28 13:02:00,49.5,23.5,30.32,NNW,339,1.0,13.0,36,0.00,,,0.00,meteohub,2013-03-28 20:02:00,
2013-03-28 13:12:00,50.4,21.6,30.31,WNW,296,4.0,9.0,32,0.00,,,0.00,meteohub,2013-03-28 20:12:00,
2013-03-28 13:22:00,50.7,21.9,30.31,WNW,297,5.0,9.0,32,0.00,,,0.00,meteohub,2013-03-28 20:22:00,
2013-03-28 13:27:00,50.7,20.5,30.31,SW,230,3.0,8.0,30,0.00,,,0.00,meteohub,2013-03-28 20:27:00,
2013-03-28 13:32:00,51.1,23.0,30.31,West,266,4.0,8.0,33,0.00,,,0.00,meteohub,2013-03-28 20:32:00,
2013-03-28 13:37:00,51.3,20.8,30.30,NNE,14,4.0,8.0,30,0.00,,,0.00,meteohub,2013-03-28 20:37:00,
2013-03-28 13:42:00,51.3,20.1,30.30,NNW,345,3.0,7.0,29,0.00,,,0.00,meteohub,2013-03-28 20:42:00,
2013-03-28 13:47:00,51.3,20.8,30.30,WNW,290,5.0,8.0,30,0.00,,,0.00,meteohub,2013-03-28 20:47:00,
2013-03-28 13:52:00,50.9,19.8,30.30,ENE,67,3.0,10.0,29,0.00,,,0.00,meteohub,2013-03-28 20:52:00,
2013-03-28 13:57:00,50.2,23.5,30.30,West,279,3.0,10.0,35,0.00,,,0.00,meteohub,2013-03-28 20:57:00,
2013-03-28 14:02:00,49.6,27.0,30.31,West,263,1.0,6.0,41,0.00,,,0.00,meteohub,2013-03-28 21:02:00,
2013-03-28 14:07:00,50.0,20.5,30.30,SW,235,3.0,5.0,31,0.00,,,0.00,meteohub,2013-03-28 21:07:00,
2013-03-28 14:12:00,49.8,23.2,30.30,SW,232,1.0,5.0,35,0.00,,,0.00,meteohub,2013-03-28 21:12:00,
2013-03-28 14:17:00,49.3,24.8,30.30,South,188,4.0,5.0,38,0.00,,,0.00,meteohub,2013-03-28 21:17:00,
2013-03-28 14:22:00,48.9,24.4,30.30,South,190,2.0,5.0,38,0.00,,,0.00,meteohub,2013-03-28 21:22:00,
2013-03-28 14:27:00,49.6,25.0,30.30,SSE,163,2.0,5.0,38,0.00,,,0.00,meteohub,2013-03-28 21:27:00,
2013-03-28 14:32:00,50.5,22.5,30.30,SSE,163,1.0,4.0,33,0.00,,,0.00,meteohub,2013-03-28 21:32:00,
2013-03-28 14:42:00,52.0,22.3,30.30,SSE,163,1.0,4.0,31,0.00,,,0.00,meteohub,2013-03-28 21:42:00,
2013-03-28 14:47:00,51.6,21.2,30.30,SW,226,2.0,4.0,30,0.00,,,0.00,meteohub,2013-03-28 21:47:00,
2013-03-28 14:52:00,51.6,21.2,30.29,SW,226,1.0,5.0,30,0.00,,,0.00,meteohub,2013-03-28 21:52:00,
2013-03-28 14:57:00,52.3,20.1,30.29,SW,226,0.0,5.0,28,0.00,,,0.00,meteohub,2013-03-28 21:57:00,
2013-03-28 15:02:00,52.3,18.5,30.29,SW,226,2.0,4.0,26,0.00,,,0.00,meteohub,2013-03-28 22:02:00,
2013-03-28 15:07:00,52.0,20.7,30.29,South,177,3.0,4.0,29,0.00,,,0.00,meteohub,2013-03-28 22:07:00,
2013-03-28 15:17:00,50.7,22.6,30.29,SSW,205,2.0,6.0,33,0.00,,,0.00,meteohub,2013-03-28 22:17:00,
2013-03-28 15:22:00,50.5,21.7,30.29,SSW,205,2.0,6.0,32,0.00,,,0.00,meteohub,2013-03-28 22:22:00,
2013-03-28 15:27:00,51.3,20.8,30.29,SW,228,2.0,6.0,30,0.00,,,0.00,meteohub,2013-03-28 22:27:00,
2013-03-28 15:32:00,51.4,21.0,30.28,SW,228,2.0,4.0,30,0.00,,,0.00,meteohub,2013-03-28 22:32:00,
2013-03-28 15:37:00,51.6,21.9,30.29,SW,228,3.0,4.0,31,0.00,,,0.00,meteohub,2013-03-28 22:37:00,
2013-03-28 15:42:00,51.3,16.7,30.29,NW,323,5.0,5.0,25,0.00,,,0.00,meteohub,2013-03-28 22:42:00,
2013-03-28 15:47:00,51.3,16.7,30.29,West,259,2.0,7.0,25,0.00,,,0.00,meteohub,2013-03-28 22:47:00,
2013-03-28 15:57:00,51.3,18.3,30.29,NW,315,4.0,7.0,27,0.00,,,0.00,meteohub,2013-03-28 22:57:00,
2013-03-28 16:07:00,52.0,14.4,30.29,NW,311,5.0,7.0,22,0.00,,,0.00,meteohub,2013-03-28 23:07:00,
2013-03-28 16:17:00,51.4,16.7,30.29,NW,317,5.0,10.0,25,0.00,,,0.00,meteohub,2013-03-28 23:17:00,
2013-03-28 16:22:00,51.6,19.6,30.28,NW,318,4.0,10.0,28,0.00,,,0.00,meteohub,2013-03-28 23:22:00,
2013-03-28 16:32:00,52.5,15.8,30.29,WNW,285,4.0,7.0,23,0.00,,,0.00,meteohub,2013-03-28 23:32:00,
2013-03-28 16:37:00,52.3,15.6,30.29,NW,315,4.0,10.0,23,0.00,,,0.00,meteohub,2013-03-28 23:37:00,
2013-03-28 16:42:00,52.2,19.2,30.29,WNW,297,0.0,10.0,27,0.00,,,0.00,meteohub,2013-03-28 23:42:00,
2013-03-28 16:47:00,52.0,14.4,30.29,NNE,19,5.0,10.0,22,0.00,,,0.00,meteohub,2013-03-28 23:47:00,
2013-03-28 16:52:00,52.0,15.3,30.29,North,351,2.0,10.0,23,0.00,,,0.00,meteohub,2013-03-28 23:52:00,
2013-03-28 16:57:00,52.0,16.3,30.29,NW,309,4.0,10.0,24,0.00,,,0.00,meteohub,2013-03-28 23:57:00,
2013-03-28 17:07:00,51.4,16.7,30.29,NW,318,10.0,11.0,25,0.00,,,0.00,meteohub,2013-03-29 00:07:00,
2013-03-28 17:17:00,51.3,14.7,30.30,NW,320,2.0,12.0,23,0.00,,,0.00,meteohub,2013-03-29 00:17:00,
2013-03-28 17:22:00,52.0,13.3,30.30,NNE,15,6.0,12.0,21,0.00,,,0.00,meteohub,2013-03-29 00:22:00,
2013-03-28 17:32:00,51.6,14.0,30.30,NW,325,3.0,8.0,22,0.00,,,0.00,meteohub,2013-03-29 00:32:00,
2013-03-28 17:37:00,51.4,13.8,30.30,NW,313,7.0,8.0,22,0.00,,,0.00,meteohub,2013-03-29 00:37:00,
2013-03-28 17:42:00,50.7,18.0,30.30,NW,325,1.0,9.0,27,0.00,,,0.00,meteohub,2013-03-29 00:42:00,
2013-03-28 17:47:00,49.6,17.1,30.30,WNW,300,4.0,9.0,27,0.00,,,0.00,meteohub,2013-03-29 00:47:00,
2013-03-28 17:52:00,49.3,14.0,30.30,NNE,31,2.0,9.0,24,0.00,,,0.00,meteohub,2013-03-29 00:52:00,
2013-03-28 17:57:00,48.9,20.3,30.30,NW,324,1.0,9.0,32,0.00,,,0.00,meteohub,2013-03-29 00:57:00,
2013-03-28 18:12:00,45.3,19.2,30.31,NW,324,0.0,2.0,35,0.00,,,0.00,meteohub,2013-03-29 01:12:00,
2013-03-28 18:17:00,45.0,19.6,30.32,NW,324,0.0,2.0,36,0.00,,,0.00,meteohub,2013-03-29 01:17:00,
2013-03-28 18:32:00,44.6,17.2,30.32,NW,324,0.0,2.0,33,0.00,,,0.00,meteohub,2013-03-29 01:32:00,
2013-03-28 18:37:00,44.2,20.3,30.32,NW,324,1.0,2.0,38,0.00,,,0.00,meteohub,2013-03-29 01:37:00,
2013-03-28 18:47:00,42.6,20.5,30.32,NW,324,0.0,3.0,41,0.00,,,0.00,meteohub,2013-03-29 01:47:00,
2013-03-28 18:52:00,42.1,20.1,30.32,NW,324,0.0,3.0,41,0.00,,,0.00,meteohub,2013-03-29 01:52:00,
2013-03-28 18:57:00,41.5,20.1,30.33,NW,324,0.0,1.0,42,0.00,,,0.00,meteohub,2013-03-29 01:57:00,
2013-03-28 19:02:00,41.2,20.3,30.33,NW,324,0.0,1.0,43,0.00,,,0.00,meteohub,2013-03-29 02:02:00,
2013-03-28 19:07:00,40.5,21.4,30.33,NW,324,0.0,1.0,46,0.00,,,0.00,meteohub,2013-03-29 02:07:00,
2013-03-28 19:12:00,40.1,21.0,30.33,NW,324,1.0,1.0,46,0.00,,,0.00,meteohub,2013-03-29 02:12:00,
2013-03-28 19:17:00,39.4,23.2,30.33,NW,324,1.0,2.0,52,0.00,,,0.00,meteohub,2013-03-29 02:17:00,
2013-03-28 19:22:00,38.3,22.3,30.34,NW,324,1.0,3.0,52,0.00,,,0.00,meteohub,2013-03-29 02:22:00,
2013-03-28 19:27:00,37.6,22.8,30.34,NW,324,0.0,3.0,55,0.00,,,0.00,meteohub,2013-03-29 02:27:00,
2013-03-28 19:32:00,36.9,22.6,30.35,NW,324,0.0,3.0,56,0.00,,,0.00,meteohub,2013-03-29 02:32:00,
2013-03-28 19:42:00,36.9,21.7,30.35,NW,324,0.0,3.0,54,0.00,,,0.00,meteohub,2013-03-29 02:42:00,
2013-03-28 19:47:00,36.9,21.4,30.35,NW,324,1.0,3.0,53,0.00,,,0.00,meteohub,2013-03-29 02:47:00,
2013-03-28 19:52:00,37.6,21.6,30.35,SSE,158,3.0,3.0,52,0.00,,,0.00,meteohub,2013-03-29 02:52:00,
2013-03-28 19:57:00,37.8,22.6,30.35,SE,140,1.0,4.0,54,0.00,,,0.00,meteohub,2013-03-29 02:57:00,
2013-03-28 20:07:00,38.1,23.4,30.36,SSE,157,2.0,5.0,55,0.00,,,0.00,meteohub,2013-03-29 03:07:00,
2013-03-28 20:12:00,37.6,22.8,30.36,SE,143,1.0,5.0,55,0.00,,,0.00,meteohub,2013-03-29 03:12:00,
2013-03-28 20:17:00,36.7,23.7,30.36,SSE,159,2.0,5.0,59,0.00,,,0.00,meteohub,2013-03-29 03:17:00,
2013-03-28 20:22:00,36.3,22.1,30.35,ESE,103,0.0,5.0,56,0.00,,,0.00,meteohub,2013-03-29 03:22:00,
2013-03-28 20:27:00,36.3,23.7,30.36,SSE,148,0.0,5.0,60,0.00,,,0.00,meteohub,2013-03-29 03:27:00,
2013-03-28 20:32:00,35.6,24.3,30.36,South,191,0.0,5.0,63,0.00,,,0.00,meteohub,2013-03-29 03:32:00,
2013-03-28 20:42:00,35.2,23.2,30.36,East,99,2.0,5.0,61,0.00,,,0.00,meteohub,2013-03-29 03:42:00,
2013-03-28 20:52:00,35.8,23.2,30.37,East,100,0.0,3.0,60,0.00,,,0.00,meteohub,2013-03-29 03:52:00,
2013-03-28 20:57:00,36.0,22.6,30.37,East,100,0.0,3.0,58,0.00,,,0.00,meteohub,2013-03-29 03:57:00,
2013-03-28 21:02:00,35.8,24.1,30.37,East,96,1.0,3.0,62,0.00,,,0.00,meteohub,2013-03-29 04:02:00,
2013-03-28 21:07:00,35.8,22.8,30.37,East,96,0.0,3.0,59,0.00,,,0.00,meteohub,2013-03-29 04:07:00,
2013-03-28 21:12:00,36.1,22.8,30.36,ESE,111,2.0,3.0,58,0.00,,,0.00,meteohub,2013-03-29 04:12:00,
2013-03-28 21:17:00,36.5,24.8,30.36,SE,144,2.0,3.0,62,0.00,,,0.00,meteohub,2013-03-29 04:17:00,
2013-03-28 21:27:00,36.0,24.3,30.36,West,277,1.0,4.0,62,0.00,,,0.00,meteohub,2013-03-29 04:27:00,
2013-03-28 21:32:00,35.8,24.4,30.37,West,264,4.0,4.0,63,0.00,,,0.00,meteohub,2013-03-29 04:32:00,
2013-03-28 21:37:00,35.2,23.9,30.37,NW,308,0.0,5.0,63,0.00,,,0.00,meteohub,2013-03-29 04:37:00,
2013-03-28 21:42:00,35.1,24.1,30.37,NW,308,1.0,5.0,64,0.00,,,0.00,meteohub,2013-03-29 04:42:00,
2013-03-28 21:47:00,34.9,23.5,30.37,NW,308,0.0,5.0,63,0.00,,,0.00,meteohub,2013-03-29 04:47:00,
2013-03-28 21:52:00,34.7,23.4,30.37,NW,308,0.0,2.0,63,0.00,,,0.00,meteohub,2013-03-29 04:52:00,
2013-03-28 22:02:00,34.5,24.3,30.37,NW,308,0.0,2.0,66,0.00,,,0.00,meteohub,2013-03-29 05:02:00,
2013-03-28 22:07:00,34.2,23.5,30.37,NW,308,0.0,2.0,65,0.00,,,0.00,meteohub,2013-03-29 05:07:00,
2013-03-28 22:12:00,34.0,23.5,30.37,NW,308,0.0,2.0,65,0.00,,,0.00,meteohub,2013-03-29 05:12:00,
2013-03-28 22:17:00,34.0,23.0,30.37,NW,308,0.0,2.0,64,0.00,,,0.00,meteohub,2013-03-29 05:17:00,
2013-03-28 22:22:00,33.8,23.4,30.38,NW,308,0.0,2.0,65,0.00,,,0.00,meteohub,2013-03-29 05:22:00,
2013-03-28 22:27:00,33.8,23.4,30.38,NW,308,0.0,1.0,65,0.00,,,0.00,meteohub,2013-03-29 05:27:00,
2013-03-28 22:32:00,34.0,23.9,30.38,NW,308,0.0,0.0,66,0.00,,,0.00,meteohub,2013-03-29 05:32:00,
2013-03-28 22:37:00,33.8,23.4,30.38,NW,308,0.0,1.0,65,0.00,,,0.00,meteohub,2013-03-29 05:37:00,
2013-03-28 22:42:00,33.6,23.2,30.38,NW,308,0.0,1.0,65,0.00,,,0.00,meteohub,2013-03-29 05:42:00,
2013-03-28 22:52:00,33.4,23.4,30.38,NW,308,0.0,2.0,66,0.00,,,0.00,meteohub,2013-03-29 05:52:00,
2013-03-28 22:57:00,33.4,23.4,30.38,NW,308,0.0,2.0,66,0.00,,,0.00,meteohub,2013-03-29 05:57:00,
2013-03-28 23:07:00,33.3,23.5,30.38,NW,308,0.0,2.0,67,0.00,,,0.00,meteohub,2013-03-29 06:07:00,
2013-03-28 23:12:00,33.1,23.7,30.38,NW,308,0.0,2.0,68,0.00,,,0.00,meteohub,2013-03-29 06:12:00,
2013-03-28 23:17:00,32.9,23.2,30.38,NW,308,0.0,2.0,67,0.00,,,0.00,meteohub,2013-03-29 06:17:00,
2013-03-28 23:22:00,32.7,22.3,30.38,NNW,329,2.0,2.0,65,0.00,,,0.00,meteohub,2013-03-29 06:22:00,
2013-03-28 23:27:00,32.9,22.5,30.39,NE,51,0.0,3.0,65,0.00,,,0.00,meteohub,2013-03-29 06:27:00,
2013-03-28 23:37:00,32.5,21.7,30.39,NE,51,1.0,3.0,64,0.00,,,0.00,meteohub,2013-03-29 06:37:00,
2013-03-28 23:47:00,32.0,21.6,30.39,NE,51,0.0,1.0,65,0.00,,,0.00,meteohub,2013-03-29 06:47:00,
2013-03-28 23:52:00,31.6,21.6,30.39,NE,51,0.0,1.0,66,0.00,,,0.00,meteohub,2013-03-29 06:52:00,
2013-03-28 23:57:00,31.3,21.6,30.39,NE,51,0.0,1.0,67,0.00,,,0.00,meteohub,2013-03-29 06:57:00,